Flag for U.S.A. Weather past 2 weeks in Dover, Delaware, U.S.A.

Now
74 °F

Partly sunny.


Feels Like: 74 °F
Forecast: 65 / 81 °F
Wind: 5 mph from Northwest

Location: Dover Air Force Base

Current Time: Sep 21, 2014 at 2:35:13 PM

Latest Report: Sep 21, 2014 at 1:58 PM


Visibility: 10 mi

Pressure: 29.74 "Hg

Humidity: 80%

Dew point: 68 °F

Location of DoverLocation

Historic Weather in Dover — Graph

°F

Dover temperature yesterday

Maximum temperature yesterday: 77 °F (at 2:58 PM)
Minimum temperature yesterday: 63 °F (at 6:58 AM)
Average temperature yesterday: 69 °F

Past Weeks' High & Low Weather Summary

 TemperatureHumidityPressure
High93 °F (Sep 6, 2:58 PM)100% (Sep 7, 12:03 AM)30.31 "Hg (Sep 7, 12:03 AM)
Low51 °F (Sep 15, 6:58 AM)39% (Sep 17, 3:58 PM)29.77 "Hg (Sep 21, 1:03 PM)
Average68 °F79%30.08 "Hg
* Reported Sep 6 1:58 PM — Sep 21 1:03 PM, Dover, Weather by CustomWeather, © 2014

Note: Actual official high and low records may vary slightly from our data, if they occured in-between our weather recording intervals... More about our weather records

Advertising

Dover weather history for previous 24 hours

 ConditionsComfort  
Time TempWeatherWind HumidityBarometerVisibility
1:03 PM
Sep 21
72 °FOvercast.7 mph88%29.77 "Hg10 mi
12:58 PM73 °FOvercast.8 mph85%29.78 "Hg10 mi
11:58 AM71 °FLow clouds.7 mph94%29.80 "Hg10 mi
10:58 AM72 °FLow clouds.8 mph96%29.82 "Hg10 mi
9:58 AM70 °FLow clouds.5 mph100%29.85 "Hg10 mi
8:58 AM68 °FLow clouds.2 mph100%29.86 "Hg8 mi
7:58 AM69 °FLow clouds.8 mph100%29.88 "Hg9 mi
6:58 AM66 °FClear.3 mph100%29.86 "Hg9 mi
5:58 AM68 °FLow clouds.No wind100%29.89 "Hg10 mi
4:58 AM68 °FOvercast.3 mph100%29.91 "Hg10 mi
3:58 AM67 °FLow clouds.5 mph100%29.93 "Hg10 mi
2:58 AM68 °FLow clouds.6 mph100%29.94 "Hg10 mi
1:58 AM67 °FLow clouds.6 mph100%29.98 "Hg10 mi
12:58 AM68 °FMostly cloudy.3 mph100%30.01 "Hg10 mi
11:58 PM
Sep 20
69 °FPassing clouds.No wind93%30.03 "Hg10 mi
10:58 PM70 °FOvercast.1 mph93%30.04 "Hg10 mi
9:58 PM70 °FOvercast.5 mph92%30.05 "Hg10 mi
8:58 PM68 °FPassing clouds.6 mph93%30.07 "Hg10 mi
7:58 PM69 °FSunny.7 mph88%30.08 "Hg10 mi
6:58 PM70 °FSunny.6 mph81%30.10 "Hg10 mi
5:58 PM73 °FScattered clouds.9 mph81%30.11 "Hg10 mi
4:58 PM75 °FSunny.10 mph76%30.12 "Hg10 mi
3:58 PM76 °FPassing clouds.10 mph73%30.14 "Hg10 mi
2:58 PM77 °FSunny.13 mph69%30.15 "Hg10 mi
Weather by CustomWeather, © 2014

See weather overviewHow to use our weather pages